SL-8 DEB, 1549

Orbit data source: Space-Track

SL-8 DEB, 1549 is space debris in LEO originally from a launch on Mon, 15 Mar 1965 UTC launched from the Tyuratam Missile And Space Complex (TTMTR). Debris objects in space refer to the collection of defunct objects orbiting the Earth. Examples of debris include non-operational satellites, rocket bodies, and fragments generated from explosions, collisions, or faulty payload assembly.

Loading next visibility...
Identifier
1549, 1965-020CV
Orbit
LEO
Country
Flag of CISCIS
Related business
Manufacturer
Unknown
Mission
Spacecraft
Bus & Motor
Unknown
Mass
Unknown
Launch date (UTC)
1965-03-15 (61 years ago)
Launch vehicle
Unknown
Launch site
Tyuratam Missile And Space Complex (TTMTR)
Object type
Payload
Rocket body
Debris
Shape & HBR
Unknown shape, 0.1 m
Radar Cross Section
Medium (>0.1 m² and <1 m²)

Expand to show TLE details & history
Last TLE update: 11 hours ago

TLE from 11 hours ago
0 SL-8 DEB
1 01549U 65020CV  26254.78213225  .00000146  00000-0  32958-3 0  9992
2 01549  56.1684  40.2547 0836537 223.9031 129.2418 12.64503154825895
Epoch: 2026-09-11T18:46Z
TLE epoch observation values (Epoch: 2026-09-11T18:46:16.226Z)
Latitude
-0°
Longitude
127.88654°
Altitude
1,847.485 km
Speed
6.763 km/s
True Right ascension
02h 41m 01s
True Declination
0° 00' 00"
Sunlit
Object was in full shadow at epoch
Visualization orbit readout
Latitude
Unknown
Longitude
Unknown
Altitude
Unknown
Speed
Unknown
Apparent Right ascension
Unknown
Apparent Declination
Unknown
Sunlit
N/A
Visualization observer readout
Local Sidereal Time
22:35:01
Azimuth
Unknown
Elevation
Unknown
Doppler factor
Unknown
Orbital elements
Apogee altitude
2,055.24 km
Perigee altitude
753.194 km
Semi-major axis
7,782.354 km
Eccentricity
0.08365
Inclination
56.1684°
RAAN
40.2547°
Arg. of periapsis
223.9031°
True anomaly
136.18744°
Mean anomaly
129.2418°
Eccentric anomaly
132.7608°
Mean motion
3.16138 °/min
Orbital period
113.87 mins
BSTAR
0.00032958
Loading maneuver chart data...
Computing Atmospheric mass density...
Loading historical data...
Loading historical data...
Loading historical data...
Loading historical data...
Loading historical data...
Loading historical data...
Loading historical data...

Documentation

Showing up to 5 results
|